Location: Unspecified
(48.8656°N, 0.0000°E)
Time: 22:16:21
(UTC+00:00)

SR - Pass Details

Date: 01 July 2019
Orbit: 575 x 881 km, 66.7° (Epoch: 12 October)

Event Time Altitude Azimuth Distance (km) Brightness Sun altitude
Rises 04:13:02 0° 281° (W) 2,812 ? 0.8°
Reaches altitude 10° 04:16:31 10° 311° (NW) 1,950 ? 1.3°
Maximum altitude 04:18:25 13° 337° (NNW) 1,814 ? 1.6°
Drops below altitude 10° 04:20:22 10° 3° (N) 2,009 ? 1.8°
Sets 04:24:06 0° 33° (NNE) 2,989 ? 2.3°
